Document Center

Browse Documents
Browse All |  Home
Documents 1-50 of 112
Date Type Title Views Size Info
06/06/2017 pdf 2017 May Crash Comparison 23 382 KB Details icon
06/06/2017 pdf 2017 May Monthly Report-Chief 36 707 KB Details icon
06/01/2017 pdf 2017 May Calls for Service 38 3,318 KB Details icon
05/22/2017 pdf Press Release-Attempted Robbery 68 582 KB Details icon
05/17/2017 pdf 2017 April Monthly Report-Chief 80 581 KB Details icon
05/17/2017 pdf 2017 April Crash Comparison 53 389 KB Details icon
05/17/2017 pdf 2017 March Crash Comparison 49 392 KB Details icon
05/01/2017 pdf 2017 April Calls for Service 69 3,015 KB Details icon
04/24/2017 pdf 2017 Grand Prix Weekend 104 1,456 KB Details icon
04/03/2017 pdf 2017 March Calls for Service 76 2,980 KB Details icon
03/06/2017 pdf 2017 February Monthly Report-Chief 137 738 KB Details icon
03/06/2017 pdf 2017 February Crash Comparison 94 382 KB Details icon
03/01/2017 pdf 2017 February Calls for Service 95 3,466 KB Details icon
02/06/2017 pdf 2017 January Crash Comparison 105 371 KB Details icon
02/01/2017 pdf 2017 January Calls for Service 127 2,963 KB Details icon
01/26/2017 pdf 2016 Annual Report 175 6,679 KB Details icon
01/19/2017 pdf 2016 December Crash Comparison 103 381 KB Details icon
01/03/2017 pdf 2016 December Monthly Report-Chief 172 657 KB Details icon
01/03/2017 pdf 2016 December Calls for Service 117 2,867 KB Details icon
12/08/2016 pdf 2016 November Crash Comparison 109 369 KB Details icon
12/05/2016 pdf 2016 November Monthly Report-Chief 132 607 KB Details icon
12/01/2016 pdf 2016 November Calls for Service 105 2,686 KB Details icon
11/15/2016 pdf 2016 October Crash Comparison 134 371 KB Details icon
11/14/2016 pdf Purdue vs. Northwestern Football Weekend 126 1,433 KB Details icon
11/07/2016 pdf 2016 October Monthly Report-Chief 157 758 KB Details icon
11/01/2016 pdf 2016 October Calls for Service 136 2,963 KB Details icon
10/31/2016 pdf Purdue vs. Penn State Football Weekend 121 1,429 KB Details icon
10/17/2016 pdf Purdue vs. Iowa Football Weekend 123 1,631 KB Details icon
10/07/2016 pdf 2016 September Crash Comparison 123 415 KB Details icon
10/04/2016 pdf Press Release-Strong Arm Robbery 217 649 KB Details icon
10/03/2016 pdf 2016 September Monthly Report-Chief 129 594 KB Details icon
10/03/2016 pdf 2016 September Calls for Service 112 3,101 KB Details icon
09/26/2016 pdf Purdue vs. Nevada Football Weekend 114 1,731 KB Details icon
09/15/2016 pdf Purdue vs. Eastern Kentucky Football Weekend 105 1,500 KB Details icon
09/15/2016 pdf Purdue vs. Cincinnati Football Weekend 110 1,532 KB Details icon
09/12/2016 pdf 2016 August Calls for Service 129 3,222 KB Details icon
09/12/2016 pdf 2016 August Crash Comparison 136 376 KB Details icon
09/12/2016 pdf 2016 July Crash Comparison 131 383 KB Details icon
09/12/2016 pdf 2016 August Monthly Report-Chief 142 736 KB Details icon
08/01/2016 pdf 2016 July Monthly Report-Chief 175 280 KB Details icon
08/01/2016 pdf 2016 July Calls for Service 146 591 KB Details icon
07/08/2016 pdf 2016 June Crash Comparison 161 378 KB Details icon
07/05/2016 pdf 2016 June Calls for Service 146 2,822 KB Details icon
07/05/2016 pdf 2016 June Monthly Report-Chief 170 659 KB Details icon
06/09/2016 pdf 2016 May Crash Comparison 207 375 KB Details icon
06/08/2016 pdf 2016 May Monthly Report-Chief 162 634 KB Details icon
06/02/2016 pdf 2016 May Calls for Service 162 2,748 KB Details icon
05/11/2016 pdf 2016 April Crash Comparison 156 445 KB Details icon
04/01/2016 pdf 2016 March Calls for Service 139 3,055 KB Details icon
04/01/2016 pdf 2016 February Calls for Service 117 2,801 KB Details icon
Documents 1-50 of 112